Content
SEND FEEDBACK

Daily
Averages
Monthly
Summary
Spain

GALDAKAO, SPAIN


Home > Europe > Spain
Elevation: 52 feet     Latitude: 43 18N     Longitude: 002 48W

WEATHER
 
SELECT A DAY
Number of Records: 226,662;   Date Range: 7/1/96 - 7/26/14
 
SHARE

PRINT THIS DATA

[ ← Previous Day ]
WEATHER ALMANAC - JANUARY 31, 2013
[ Next Day → ]
[ °C ]   °F
Weather ElementAverageHighLow
Temperature57.9 °F66.2 °F (1:30 pm)51.8 °F (5:30 am)
Dewpoint51.1 °F55.4 °F (4:00 pm)46.4 °F (5:30 am)
Humidity79.2 %94 % (7:00 pm)59 % (11:30 am)
Barometer30.36 in30.42 in (10:30 am)30.30 in (10:00 pm)
Wind Speed3.1 mph8.1 mph (12:00 pm)
Weather ElementAverage
Visibility6.1 mi
Wind DirectionESE (119.2 °)

Weather ElementTotal
Precipitation---
Heating Degree Days6 (Base 65)
Growing Degree Days9 (Base 50)
Averaged from 36 records on January 31, 2013
WEATHER CONDITIONS BREAKOUT
WIND DIRECTION BREAKOUT
WEATHER BY HOUR - JANUARY 31, 2013
[ °C ]   °F
Local TimeTemperatureDewpointHumidityBarometerVisibilityWind DirectionWind SpeedGust SpeedPrecipitationEventsConditions
5:30 AM51.8 °F46.4 °F82 %30.36 in6.2 miSE (130°)3.5 mphScattered Clouds
6:00 AM53.6 °F46.4 °F77 %30.36 in6.2 miVariable2.3 mphScattered Clouds
6:30 AM53.6 °F46.4 °F77 %30.36 in6.2 miEast (90°)3.5 mphScattered Clouds
7:00 AM53.6 °F46.4 °F77 %30.36 in6.2 miESE (110°)4.6 mphScattered Clouds
7:30 AM55.4 °F46.4 °F72 %30.36 in6.2 miSE (140°)4.6 mphPartly Cloudy
8:00 AM57.2 °F46.4 °F67 %30.36 in6.2 miEast (100°)3.5 mphPartly Cloudy
8:30 AM53.6 °F46.4 °F77 %30.36 in6.2 miVariable2.3 mphPartly Cloudy
9:00 AM55.4 °F46.4 °F72 %30.39 in6.2 miVariable2.3 mphPartly Cloudy
9:30 AM55.4 °F48.2 °F77 %30.39 in6.2 miESE (110°)5.8 mphPartly Cloudy
10:00 AM57.2 °F48.2 °F72 %30.39 inESE (110°)3.5 mphClear
10:30 AM60.8 °F48.2 °F63 %30.42 inCalmClear
11:00 AM62.6 °F50.0 °F63 %30.42 inVariable2.3 mphClear
11:30 AM64.4 °F50.0 °F59 %30.42 inVariable1.2 mphClear
12:00 PM62.6 °F51.8 °F68 %30.42 inWest (280°)8.1 mphClear
12:30 PM62.6 °F53.6 °F72 %30.42 inNW (310°)3.5 mphClear
1:30 PM66.2 °F51.8 °F60 %30.39 in6.2 miVariable1.2 mphPartly Cloudy
2:00 PM66.2 °F51.8 °F60 %30.39 in6.2 miVariable1.2 mphPartly Cloudy
2:30 PM64.4 °F53.6 °F68 %30.36 in6.2 miNW (310°)4.6 mphPartly Cloudy
3:00 PM62.6 °F53.6 °F72 %30.36 in6.2 miWNW (300°)3.5 mphPartly Cloudy
3:30 PM62.6 °F53.6 °F72 %30.36 in6.2 miWNW (300°)4.6 mphPartly Cloudy
4:00 PM62.6 °F55.4 °F77 %30.36 in6.2 miWest (280°)5.8 mphPartly Cloudy
4:30 PM60.8 °F55.4 °F82 %30.33 in6.2 miWNW (290°)5.8 mphPartly Cloudy
5:00 PM59.0 °F55.4 °F88 %30.33 in6.2 miWest (280°)5.8 mphPartly Cloudy
5:30 PM59.0 °F53.6 °F82 %30.33 in6.2 miWNW (290°)4.6 mphPartly Cloudy
6:00 PM57.2 °F53.6 °F88 %30.33 in6.2 miWNW (290°)4.6 mphScattered Clouds
6:30 PM57.2 °F53.6 °F88 %30.33 in6.2 miWNW (290°)4.6 mphScattered Clouds
7:00 PM55.4 °F53.6 °F94 %30.36 in6.2 miWest (280°)4.6 mphScattered Clouds
7:30 PM55.4 °F53.6 °F94 %30.33 in6.2 miCalmScattered Clouds
8:00 PM55.4 °F53.6 °F94 %30.33 in6.2 miCalmScattered Clouds
8:30 PM55.4 °F53.6 °F94 %30.33 in6.2 miCalmScattered Clouds
9:00 PM55.4 °F53.6 °F94 %30.33 in6.2 miCalmScattered Clouds
9:30 PM53.6 °F51.8 °F94 %30.33 inCalmClear
10:00 PM55.4 °F53.6 °F94 %30.30 in5.6 miVariable2.3 mph
10:30 PM53.6 °F51.8 °F94 %30.30 in5.0 miVariable1.2 mph
11:00 PM53.6 °F51.8 °F94 %30.30 in5.0 miVariable2.3 mph
11:30 PM51.8 °F50.0 °F94 %30.30 in5.0 miVariable2.3 mph
Hourly data recorded from LEBB, located miles away from Galdakao, Spain







STORIES FROM OUR PARTNERS